sat.trackr.live / text

‹ back to catalog

STARLINK-5979

NORAD 56345 · 2023-058AE

PAYLOAD ACTIVE UNKNOWN

§ Identity

Operator
Country
US
Launch date
2023-04-27
Launch site
AFWTR
Launch vehicle
Mass (kg)
RCS (m²)

Purposes: comms

External: N2YO · Heavens-Above · Gunter

§ Orbital elements

Epoch: 2026-09-20T22:00:03.000096Z

Period
94.76 min
Inclination
97.2853°
Eccentricity
0.0001646
Mean motion
15.19600083 rev/d
Perigee alt
505.9 km
Apogee alt
508.2 km
Semi-major
6,885.2 km
B*
3.2597e-2
RAAN
257.7783°
Arg perigee
83.6456°
Mean anomaly
3.7599°
Rev number
578

§ Raw data

STARLINK-59791 56345U 23058AE  26263.91670139  .00746864  00000+0  32597-1 0  99972 56345  97.2853 257.7783 0001646  83.6456   3.7599 15.19600083  5783

JSON: /api/v1/satellites/56345 · /tle

For live sub-satellite position, see the globe view (requires WebGL).

§ Visibility from observer

Set your observer location to see the next 7 days of passes ≥ 10°. The values pass through the URL so the page stays shareable.

No JS? Fill the form by hand. The geolocation button needs JavaScript.